2022/12/24 00:00:00,10.7,-6.7
2022/12/24 00:10:00,10.7,-6.5
2022/12/24 00:20:00,10.6,-6.3
2022/12/24 00:30:00,10.7,-6.1
2022/12/24 00:40:00,10.9,-6.1
2022/12/24 00:50:00,11.3,-6.3
2022/12/24 01:00:00,11.7,-6.2
2022/12/24 01:10:00,11.7,-6.1
2022/12/24 01:20:00,11.7,-6.2
2022/12/24 01:30:00,12.0,-6.4
2022/12/24 01:40:00,12.0,-6.3
2022/12/24 01:50:00,11.9,-6.1
2022/12/24 02:00:00,12.0,-6.0
2022/12/24 02:10:00,12.3,-6.0
2022/12/24 02:20:00,12.7,-5.8
2022/12/24 02:30:00,12.8,-5.7
2022/12/24 02:40:00,13.1,-5.7
2022/12/24 02:50:00,13.7,-5.7
2022/12/24 03:00:00,14.2,-5.6
2022/12/24 03:10:00,14.8,-5.7
2022/12/24 03:20:00,15.5,-5.5
2022/12/24 03:30:00,16.2,-5.3
2022/12/24 03:40:00,17.0,-5.4
2022/12/24 03:50:00,17.7,-5.2
2022/12/24 04:00:00,17.9,-4.9
2022/12/24 04:10:00,18.0,-4.9
2022/12/24 04:20:00,18.3,-4.6
2022/12/24 04:30:00,18.8,-4.8
2022/12/24 04:40:00,19.1,-4.8
2022/12/24 04:50:00,19.6,-4.8
2022/12/24 05:00:00,19.8,-4.8
2022/12/24 05:10:00,20.1,-4.6
2022/12/24 05:20:00,20.5,-4.8
2022/12/24 05:30:00,20.9,-4.6
2022/12/24 05:40:00,21.3,-4.5
2022/12/24 05:50:00,21.5,-4.3
2022/12/24 06:00:00,21.7,-4.6
2022/12/24 06:10:00,22.0,-4.4
2022/12/24 06:20:00,22.2,-4.3
2022/12/24 06:30:00,22.3,-4.3
2022/12/24 06:40:00,22.4,-4.3
2022/12/24 06:50:00,22.5,-4.2
2022/12/24 07:00:00,22.6,-4.2
2022/12/24 07:10:00,22.8,-4.1
2022/12/24 07:20:00,22.9,-4.2
2022/12/24 07:30:00,23.2,-3.7
2022/12/24 07:40:00,23.5,-3.7
2022/12/24 07:50:00,23.8,-3.9
2022/12/24 08:00:00,24.2,-3.5
2022/12/24 08:10:00,24.0,-3.6
2022/12/24 08:20:00,24.3,-3.3
2022/12/24 08:30:00,24.6,-3.0
2022/12/24 08:40:00,24.8,-3.2
2022/12/24 08:50:00,25.0,-2.5
2022/12/24 09:00:00,25.2,-3.1
2022/12/24 09:10:00,25.4,-2.6
2022/12/24 09:20:00,25.7,-2.1
2022/12/24 09:30:00,25.6,-1.7
2022/12/24 09:40:00,25.6,-1.4
2022/12/24 09:50:00,25.5,-1.3
2022/12/24 10:00:00,25.4,-1.5
2022/12/24 10:10:00,25.3,-1.2
2022/12/24 10:20:00,25.3,-0.9
2022/12/24 10:30:00,25.1,-0.8
2022/12/24 10:40:00,25.0,-1.1
2022/12/24 10:50:00,24.9,-0.7
2022/12/24 11:00:00,24.8,-1.0
2022/12/24 11:10:00,24.7,-1.2
2022/12/24 11:20:00,24.7,-1.2
2022/12/24 11:30:00,25.2,-0.8
2022/12/24 11:40:00,25.2,-0.8
2022/12/24 11:50:00,25.4, 0.3
2022/12/24 12:00:00,25.3,-0.6
2022/12/24 12:10:00,25.2,-0.8
2022/12/24 12:20:00,25.3, 0.0
2022/12/24 12:30:00,25.4, 0.6
2022/12/24 12:40:00,25.3,-0.5
2022/12/24 12:50:00,25.7,-0.5
2022/12/24 13:00:00,25.8, 0.0
2022/12/24 13:10:00,25.8,-0.6
2022/12/24 13:20:00,26.0,-0.4
2022/12/24 13:30:00,26.1,-0.9
2022/12/24 13:40:00,26.4,-0.4
2022/12/24 13:50:00,26.4,-0.6
2022/12/24 14:00:00,26.3,-0.4
2022/12/24 14:10:00,26.4,-0.7
2022/12/24 14:20:00,26.3,-0.5
2022/12/24 14:30:00,26.3,-0.7
2022/12/24 14:40:00,26.7, 0.0
2022/12/24 14:50:00,26.6,-0.4
2022/12/24 15:00:00,26.8,-0.8
2022/12/24 15:10:00,27.0,-0.7
2022/12/24 15:20:00,27.2,-0.6
2022/12/24 15:30:00,27.2,-0.8
2022/12/24 15:40:00,27.1,-0.9
2022/12/24 15:50:00,27.0,-1.2
2022/12/24 16:00:00,26.8,-1.1
2022/12/24 16:10:00,26.9,-1.4
2022/12/24 16:20:00,27.1,-1.5
2022/12/24 16:30:00,27.6,-1.6
2022/12/24 16:40:00,27.8,-1.5
2022/12/24 16:50:00,27.8,-1.9
2022/12/24 17:00:00,28.0,-1.8
2022/12/24 17:10:00,27.9,-1.8
2022/12/24 17:20:00,27.9,-1.7
2022/12/24 17:30:00,28.0,-1.8
2022/12/24 17:40:00,27.9,-1.7
2022/12/24 17:50:00,27.8,-1.6
2022/12/24 18:00:00,28.0,-1.7
2022/12/24 18:10:00,28.3,-2.0
2022/12/24 18:20:00,28.3,-1.8
2022/12/24 18:30:00,28.8,-1.9
2022/12/24 18:40:00,29.5,-1.9
2022/12/24 18:50:00,29.8,-1.9
2022/12/24 19:00:00,30.1,-1.8
2022/12/24 19:10:00,30.3,-2.0
2022/12/24 19:20:00,30.7,-1.8
2022/12/24 19:30:00,30.7,-1.7
2022/12/24 19:40:00,31.1,-1.7
2022/12/24 19:50:00,31.5,-1.8
2022/12/24 20:00:00,31.6,-1.9
2022/12/24 20:10:00,31.9,-2.0
2022/12/24 20:20:00,32.1,-1.9
2022/12/24 20:30:00,32.5,-2.0
2022/12/24 20:40:00,32.9,-1.7
2022/12/24 20:50:00,32.9,-1.7
2022/12/24 21:00:00,32.9,-1.6
2022/12/24 21:10:00,32.8,-1.7
2022/12/24 21:20:00,32.8,-1.3
2022/12/24 21:30:00,32.7,-1.6
2022/12/24 21:40:00,33.1,-1.8
2022/12/24 21:50:00,33.3,-1.9
2022/12/24 22:00:00,33.1,-1.7
2022/12/24 22:10:00,33.1,-1.4
2022/12/24 22:20:00,33.1,-1.7
2022/12/24 22:30:00,33.2,-1.7
2022/12/24 22:40:00,33.2,-1.9
2022/12/24 22:50:00,33.2,-1.6
2022/12/24 23:00:00,33.2,-1.6
2022/12/24 23:10:00,33.2,-1.7
2022/12/24 23:20:00,33.1,-1.5
2022/12/24 23:30:00,33.1,-1.5
2022/12/24 23:40:00,33.4,-1.8
2022/12/24 23:50:00,33.6,-1.8
